Satellite: METEOR-M Catalog number: 35865 Epoch time: 11132.75457713 Element set: 357 Inclination: 098.7088 deg RA of node: 188.3370 deg Eccentricity: 0.0002955 Arg of perigee: 116.9043 deg Mean anomaly: 243.2390 deg Mean motion: 14.21838210 rev/day Decay rate: 1.76e-06 rev/day^2 Epoch rev: 8555 Checksum: 304
Satellite: RS-38 Catalog number: 35869 Epoch time: 11132.75897656 Element set: 355 Inclination: 098.7056 deg RA of node: 188.3784 deg Eccentricity: 0.0004877 Arg of perigee: 123.7116 deg Mean anomaly: 236.4507 deg Mean motion: 14.22010297 rev/day Decay rate: 1.77e-06 rev/day^2 Epoch rev: 8556 Checksum: 341
/EX
participants (1)
-
Ray Hoad